This is the latest recevied weather packets stored in our database for station/object N3LF. If no packets are shown the sender has not sent any weather packets the latest 10 day(s).
| Time | Temp. | Humidity | Pressure | Rain* | Wind** | Luminosity | Snow |
|---|---|---|---|---|---|---|---|
| 1777658813 | 17.78° C | 48% | 1019 hPa | 0 mm | - | 638 W/m² | - |
| 1777658509 | 17.22° C | 49% | 1018.8 hPa | 0 mm | - | 259 W/m² | - |
| 1777658206 | 17.22° C | 53% | 1018.8 hPa | 0 mm | - | 745 W/m² | - |
| 1777657903 | 17.22° C | 48% | 1018.9 hPa | 0 mm | - | 691 W/m² | - |
| 1777657600 | 17.22° C | 50% | 1018.8 hPa | 0 mm | - | 728 W/m² | - |
| 1777657297 | 17.22° C | 49% | 1018.9 hPa | 0 mm | - | 291 W/m² | - |
| 1777656995 | 18.33° C | 50% | 1019 hPa | 0 mm | - | 739 W/m² | - |
| 1777656691 | 17.22° C | 51% | 1018.9 hPa | 0 mm | - | 749 W/m² | - |
| 1777656387 | 16.67° C | 53% | 1019 hPa | 0 mm | - | 732 W/m² | - |
| 1777656082 | 16.67° C | 53% | 1019.2 hPa | 0 mm | - | 270 W/m² | - |
| 1777655779 | 16.67° C | 51% | 1019.2 hPa | 0 mm | - | 740 W/m² | - |
| 1777655475 | 16.67° C | 51% | 1019.3 hPa | 0 mm | - | 722 W/m² | - |
| 1777655173 | 16.67° C | 52% | 1019.2 hPa | 0 mm | - | 625 W/m² | - |
| 1777654869 | 17.22° C | 50% | 1019.4 hPa | 0 mm | - | 685 W/m² | - |
| 1777654567 | 17.22° C | 51% | 1019.5 hPa | 0 mm | - | 619 W/m² | - |
| 1777654264 | 16.67° C | 49% | 1019.4 hPa | 0 mm | - | 647 W/m² | - |
| 1777653962 | 16.67° C | 51% | 1019.5 hPa | 0 mm | - | 585 W/m² | - |
| 1777653659 | 16.11° C | 51% | 1019.3 hPa | 0 mm | - | 669 W/m² | - |
| 1777653355 | 16.67° C | 50% | 1019.2 hPa | 0 mm | - | 667 W/m² | - |
| 1777653052 | 16.67° C | 49% | 1019.5 hPa | 0 mm | - | 565 W/m² | - |
| 1777652748 | 16.67° C | 50% | 1019.4 hPa | 0 mm | - | 636 W/m² | - |
| 1777652445 | 17.22° C | 49% | 1019.3 hPa | 0 mm | - | 647 W/m² | - |
| 1777652143 | 16.11° C | 50% | 1019.5 hPa | 0 mm | - | 696 W/m² | - |
| 1777651839 | 16.11° C | 51% | 1019.6 hPa | 0 mm | - | 717 W/m² | - |
| 1777651536 | 16.11° C | 51% | 1019.6 hPa | 0 mm | - | 652 W/m² | - |
* Rain latest hour (hover to see other rain measurements)
** Current wind speed in m/s (hover to see current wind gust speed)